Location: Heilbronn
(49.1548°N, 9.2780°E)
Time: 08:43:31
(UTC+02:00)

ISS - Visible Passes

Search period start: 24 September 2017 00:00
Search period end: 04 October 2017 00:00
Orbit: 401 x 407 km, 51.6° (Epoch: 24 September)

Date Brightness Start Highest point End Pass type
(mag) Time Alt. Az. Time Alt. Az. Time Alt. Az.
25 Sep -1.3 21:18:58 10° SSW 21:19:31 14° SSW 21:19:31 14° SSW visible
26 Sep -2.4 20:27:15 10° SSW 20:29:47 21° SE 20:29:53 21° SE visible
27 Sep -3.0 21:10:23 10° SW 21:12:44 41° SSW 21:12:44 41° SSW visible
28 Sep -3.2 20:18:16 10° SW 20:21:20 39° SSE 20:22:45 25° E visible
28 Sep -1.1 21:54:28 10° W 21:55:24 18° W 21:55:24 18° W visible
29 Sep -3.9 21:02:03 10° WSW 21:05:17 83° NW 21:05:17 83° NW visible
30 Sep -3.9 20:09:41 10° WSW 20:12:57 70° SSE 20:15:03 20° ENE visible
30 Sep -1.3 21:46:18 10° W 21:47:42 22° WNW 21:47:42 22° WNW visible
01 Oct -3.6 20:53:49 10° W 20:57:04 61° N 20:57:23 57° NNE visible
02 Oct -3.7 20:01:20 10° WSW 20:04:37 76° NNW 20:07:01 17° ENE visible
02 Oct -1.5 21:38:04 10° WNW 21:39:39 25° WNW 21:39:39 25° WNW visible
03 Oct -3.4 20:45:34 10° W 20:48:47 53° N 20:49:14 48° NNE visible
